{"data":{"norad_id":42954,"epoch":"2026-09-20T05:36:15.236352Z","epoch_age_seconds":71424,"freshness":"FRESH","line1":"1 42954U 17060A   26263.23350968 -.00002550  00000+0 -32144-3 0  9993","line2":"2 42954  98.0229 297.0605 0019961 141.3694 218.8950 14.80977328482522","mean_motion":14.80977328,"eccentricity":0.0019961,"inclination_deg":98.0229,"raan_deg":297.0605,"arg_perigee_deg":141.3694,"mean_anomaly_deg":218.895,"bstar":-0.00032144,"rev_number":48252,"period_min":97.233088770148,"perigee_km":612.25944317147,"apogee_km":640.22232055144,"semimajor_km":7004.3778818615,"source":"CELESTRAK","updated_at":"2026-09-20T09:00:14.254118Z"}}